カタログに戻る

SL-16 DEB

運用中LEO
NORAD 39867·DEBRIS·🇷🇺 Russia

打ち上げ Dec 25, 1992 から Baikonur Cosmodrome

Loading…

次のパス (今後24時間)

TLE

古いSource: Space-Track

元期: Sep 5, 2026, 14:02 UTC

1 39867U 92093LV  26248.58503154  .00002844  00000-0  11418-2 0  9994
2 39867  70.9639 331.6962 0128324 220.3928 138.7618 14.24625963608656

AllMySatでSL-16 DEBをリアルタイム追跡

Download on the App Store